Volver al catálogo

STARLINK-30347

ActivoComunicacionesVLEO
NORAD 57699·PAYLOAD·🇺🇸 United States

Lanzado Aug 27, 2023 desde Cape Canaveral Space Force Station

Loading…

Próximos Pases (próximas 24 horas)

TLE

ActualizadoSource: CelesTrak SupGP

Época: Sep 14, 2026, 14:24 UTC

1 57699C 23129B   26257.60048611  .00028708  00000+0  10398-2 0  2575
2 57699  42.9993 119.8026 0001186 261.4015 178.0479 15.27565146    15

Sigue STARLINK-30347 en tiempo real con AllMySat

Download on the App Store